Time,TemperatureF,DewpointF,PressureIn,WindDirection,WindDirectionDegrees,WindSpeedMPH,WindSpeedGustMPH,Humidity,HourlyPrecipIn,Conditions,Clouds,dailyrainin,SoftwareType,DateUTC
2013-03-23 00:01:00,53.4,43.2,29.94,ESE,105,8.0,11.0,68,0.00,,,0.00,meteohub,2013-03-23 05:01:00,
2013-03-23 00:06:00,53.4,43.2,29.94,East,93,7.0,11.0,68,0.00,,,0.00,meteohub,2013-03-23 05:06:00,
2013-03-23 00:12:00,53.4,43.2,29.94,SE,125,7.0,11.0,68,0.00,,,0.00,meteohub,2013-03-23 05:12:00,
2013-03-23 00:17:00,53.4,43.2,29.94,East,93,10.0,11.0,68,0.00,,,0.00,meteohub,2013-03-23 05:17:00,
2013-03-23 00:22:00,53.4,43.5,29.93,East,95,8.0,11.0,69,0.00,,,0.00,meteohub,2013-03-23 05:22:00,
2013-03-23 00:27:00,53.2,43.3,29.93,ENE,76,4.0,10.0,69,0.00,,,0.00,meteohub,2013-03-23 05:27:00,
2013-03-23 00:32:00,53.2,43.3,29.93,ENE,74,7.0,10.0,69,0.00,,,0.00,meteohub,2013-03-23 05:32:00,
2013-03-23 00:37:00,53.2,43.3,29.93,East,87,3.0,11.0,69,0.00,,,0.00,meteohub,2013-03-23 05:37:00,
2013-03-23 00:42:00,53.2,43.3,29.94,East,93,3.0,11.0,69,0.00,,,0.00,meteohub,2013-03-23 05:42:00,
2013-03-23 00:47:00,53.2,43.3,29.94,East,100,3.0,11.0,69,0.00,,,0.00,meteohub,2013-03-23 05:47:00,
2013-03-23 00:52:00,53.2,43.3,29.94,ENE,78,5.0,9.0,69,0.00,,,0.00,meteohub,2013-03-23 05:52:00,
2013-03-23 00:57:00,53.2,43.7,29.94,ESE,114,3.0,9.0,70,0.00,,,0.00,meteohub,2013-03-23 05:57:00,
2013-03-23 01:03:00,53.1,43.5,29.94,East,87,2.0,7.0,70,0.00,,,0.00,meteohub,2013-03-23 06:03:00,
2013-03-23 01:08:00,53.1,43.5,29.94,East,87,3.0,7.0,70,0.00,,,0.00,meteohub,2013-03-23 06:08:00,
2013-03-23 01:13:00,53.1,43.9,29.93,East,91,6.0,6.0,71,0.00,,,0.00,meteohub,2013-03-23 06:13:00,
2013-03-23 01:18:00,52.9,43.7,29.93,East,90,6.0,8.0,71,0.00,,,0.00,meteohub,2013-03-23 06:18:00,
2013-03-23 01:23:00,52.9,43.7,29.93,East,93,5.0,8.0,71,0.00,,,0.00,meteohub,2013-03-23 06:23:00,
2013-03-23 01:29:00,53.1,43.9,29.93,East,93,2.0,8.0,71,0.00,,,0.00,meteohub,2013-03-23 06:29:00,
2013-03-23 01:34:00,53.1,43.9,29.93,East,93,0.0,7.0,71,0.00,,,0.00,meteohub,2013-03-23 06:34:00,
2013-03-23 01:39:00,53.1,43.9,29.93,ESE,122,2.0,7.0,71,0.00,,,0.00,meteohub,2013-03-23 06:39:00,
2013-03-23 01:44:00,53.1,43.9,29.93,SE,130,4.0,5.0,71,0.00,,,0.00,meteohub,2013-03-23 06:44:00,
2013-03-23 01:49:00,53.1,43.9,29.93,East,96,5.0,5.0,71,0.00,,,0.00,meteohub,2013-03-23 06:49:00,
2013-03-23 01:55:00,53.2,44.1,29.93,East,100,1.0,5.0,71,0.00,,,0.00,meteohub,2013-03-23 06:55:00,
2013-03-23 02:00:00,53.2,44.1,29.93,East,99,2.0,7.0,71,0.00,,,0.00,meteohub,2013-03-23 07:00:00,
2013-03-23 02:05:00,53.4,44.2,29.93,East,99,0.0,5.0,71,0.00,,,0.00,meteohub,2013-03-23 07:05:00,
2013-03-23 02:10:00,53.4,44.2,29.93,ESE,105,1.0,3.0,71,0.00,,,0.00,meteohub,2013-03-23 07:10:00,
2013-03-23 02:16:00,53.4,44.6,29.92,ESE,104,2.0,3.0,72,0.00,,,0.00,meteohub,2013-03-23 07:16:00,
2013-03-23 02:21:00,53.4,44.6,29.92,ESE,116,1.0,6.0,72,0.00,,,0.00,meteohub,2013-03-23 07:21:00,
2013-03-23 02:26:00,53.2,44.8,29.92,East,95,5.0,7.0,73,0.00,,,0.00,meteohub,2013-03-23 07:26:00,
2013-03-23 02:32:00,53.2,44.4,29.91,East,101,5.0,8.0,72,0.00,,,0.00,meteohub,2013-03-23 07:32:00,
2013-03-23 02:37:00,53.2,44.4,29.92,East,88,0.0,8.0,72,0.00,,,0.00,meteohub,2013-03-23 07:37:00,
2013-03-23 02:42:00,53.2,44.8,29.91,East,87,1.0,8.0,73,0.00,,,0.00,meteohub,2013-03-23 07:42:00,
2013-03-23 02:47:00,53.2,44.8,29.91,East,79,3.0,7.0,73,0.00,,,0.00,meteohub,2013-03-23 07:47:00,
2013-03-23 02:52:00,53.2,44.8,29.91,East,86,7.0,7.0,73,0.00,,,0.00,meteohub,2013-03-23 07:52:00,
2013-03-23 02:57:00,53.2,44.8,29.91,East,90,6.0,8.0,73,0.00,,,0.00,meteohub,2013-03-23 07:57:00,
2013-03-23 03:03:00,53.2,44.8,29.91,ENE,72,1.0,8.0,73,0.00,,,0.00,meteohub,2013-03-23 08:03:00,
2013-03-23 03:08:00,53.2,44.8,29.90,East,98,3.0,7.0,73,0.00,,,0.00,meteohub,2013-03-23 08:08:00,
2013-03-23 03:13:00,53.2,45.1,29.89,East,80,6.0,7.0,74,0.00,,,0.00,meteohub,2013-03-23 08:13:00,
2013-03-23 03:18:00,53.2,45.1,29.89,East,101,2.0,8.0,74,0.00,,,0.00,meteohub,2013-03-23 08:18:00,
2013-03-23 03:23:00,53.2,45.1,29.89,ESE,118,3.0,8.0,74,0.00,,,0.00,meteohub,2013-03-23 08:23:00,
2013-03-23 03:28:00,53.2,44.8,29.88,ESE,102,3.0,8.0,73,0.00,,,0.00,meteohub,2013-03-23 08:28:00,
2013-03-23 03:34:00,53.2,45.1,29.88,East,91,3.0,9.0,74,0.00,,,0.00,meteohub,2013-03-23 08:34:00,
2013-03-23 03:39:00,53.2,45.1,29.88,East,98,3.0,9.0,74,0.00,,,0.00,meteohub,2013-03-23 08:39:00,
2013-03-23 03:44:00,53.2,45.5,29.87,East,85,5.0,9.0,75,0.00,,,0.00,meteohub,2013-03-23 08:44:00,
2013-03-23 03:49:00,53.2,45.1,29.87,ENE,63,2.0,8.0,74,0.00,,,0.00,meteohub,2013-03-23 08:49:00,
2013-03-23 03:55:00,53.2,45.5,29.86,ENE,77,2.0,9.0,75,0.00,,,0.00,meteohub,2013-03-23 08:55:00,
2013-03-23 04:00:00,53.1,45.3,29.87,East,91,6.0,9.0,75,0.00,,,0.00,meteohub,2013-03-23 09:00:00,
2013-03-23 04:05:00,53.1,45.3,29.87,ENE,68,1.0,9.0,75,0.00,,,0.00,meteohub,2013-03-23 09:05:00,
2013-03-23 04:10:00,53.1,45.3,29.87,East,85,1.0,7.0,75,0.00,,,0.00,meteohub,2013-03-23 09:10:00,
2013-03-23 04:16:00,53.1,45.3,29.86,East,79,3.0,6.0,75,0.00,,,0.00,meteohub,2013-03-23 09:16:00,
2013-03-23 04:21:00,53.1,45.3,29.86,East,83,3.0,7.0,75,0.00,,,0.00,meteohub,2013-03-23 09:21:00,
2013-03-23 04:26:00,53.1,45.3,29.86,East,88,8.0,8.0,75,0.00,,,0.00,meteohub,2013-03-23 09:26:00,
2013-03-23 04:32:00,53.1,45.7,29.86,East,97,3.0,9.0,76,0.00,,,0.00,meteohub,2013-03-23 09:32:00,
2013-03-23 04:37:00,53.1,45.3,29.85,East,94,6.0,9.0,75,0.00,,,0.00,meteohub,2013-03-23 09:37:00,
2013-03-23 04:42:00,53.2,45.5,29.85,East,91,6.0,9.0,75,0.00,,,0.00,meteohub,2013-03-23 09:42:00,
2013-03-23 04:47:00,53.2,45.1,29.85,East,93,7.0,9.0,74,0.00,,,0.00,meteohub,2013-03-23 09:47:00,
2013-03-23 04:52:00,53.4,45.3,29.85,East,87,6.0,9.0,74,0.00,,,0.00,meteohub,2013-03-23 09:52:00,
2013-03-23 04:57:00,53.6,45.1,29.86,East,83,3.0,9.0,73,0.00,,,0.00,meteohub,2013-03-23 09:57:00,
2013-03-23 05:03:00,53.8,45.7,29.87,ESE,122,2.0,9.0,74,0.00,,,0.00,meteohub,2013-03-23 10:03:00,
2013-03-23 05:08:00,53.8,45.7,29.87,SE,125,2.0,9.0,74,0.00,,,0.00,meteohub,2013-03-23 10:08:00,
2013-03-23 05:14:00,54.0,45.5,29.87,East,100,2.0,6.0,73,0.00,,,0.00,meteohub,2013-03-23 10:14:00,
2013-03-23 05:19:00,54.0,45.5,29.87,SE,138,2.0,3.0,73,0.00,,,0.00,meteohub,2013-03-23 10:19:00,
2013-03-23 05:24:00,54.1,45.3,29.87,ESE,114,2.0,4.0,72,0.00,,,0.00,meteohub,2013-03-23 10:24:00,
2013-03-23 05:29:00,54.0,45.5,29.88,SE,127,1.0,7.0,73,0.00,,,0.00,meteohub,2013-03-23 10:29:00,
2013-03-23 05:34:00,54.0,45.5,29.87,East,97,2.0,7.0,73,0.00,,,0.00,meteohub,2013-03-23 10:34:00,
2013-03-23 05:39:00,54.1,45.7,29.87,ESE,111,3.0,7.0,73,0.00,,,0.00,meteohub,2013-03-23 10:39:00,
2013-03-23 05:44:00,54.0,45.5,29.87,East,101,1.0,7.0,73,0.00,,,0.00,meteohub,2013-03-23 10:44:00,
2013-03-23 05:50:00,54.0,45.5,29.87,East,83,2.0,7.0,73,0.00,,,0.00,meteohub,2013-03-23 10:50:00,
2013-03-23 05:55:00,54.0,45.5,29.87,East,93,3.0,6.0,73,0.00,,,0.00,meteohub,2013-03-23 10:55:00,
2013-03-23 06:00:00,54.1,45.7,29.87,ESE,120,1.0,7.0,73,0.00,,,0.00,meteohub,2013-03-23 11:00:00,
2013-03-23 06:05:00,54.1,46.0,29.87,East,97,3.0,7.0,74,0.00,,,0.00,meteohub,2013-03-23 11:05:00,
2013-03-23 06:10:00,54.1,45.7,29.87,East,93,6.0,6.0,73,0.00,,,0.00,meteohub,2013-03-23 11:10:00,
2013-03-23 06:16:00,54.3,45.9,29.87,East,91,6.0,8.0,73,0.00,,,0.00,meteohub,2013-03-23 11:16:00,
2013-03-23 06:21:00,54.3,46.2,29.86,East,95,3.0,8.0,74,0.00,,,0.00,meteohub,2013-03-23 11:21:00,
2013-03-23 06:26:00,54.3,45.9,29.87,ENE,67,4.0,8.0,73,0.00,,,0.00,meteohub,2013-03-23 11:26:00,
2013-03-23 06:32:00,54.5,46.0,29.87,SE,133,2.0,9.0,73,0.00,,,0.00,meteohub,2013-03-23 11:32:00,
2013-03-23 06:37:00,54.7,45.9,29.87,ESE,103,3.0,9.0,72,0.00,,,0.00,meteohub,2013-03-23 11:37:00,
2013-03-23 06:42:00,54.9,46.0,29.87,ESE,104,3.0,9.0,72,0.00,,,0.00,meteohub,2013-03-23 11:42:00,
2013-03-23 06:47:00,54.9,46.0,29.87,SE,129,3.0,8.0,72,0.00,,,0.00,meteohub,2013-03-23 11:47:00,
2013-03-23 06:52:00,54.9,46.0,29.87,ESE,116,9.0,9.0,72,0.00,,,0.00,meteohub,2013-03-23 11:52:00,
2013-03-23 06:57:00,55.0,46.2,29.87,SE,127,3.0,9.0,72,0.00,,,0.00,meteohub,2013-03-23 11:57:00,
2013-03-23 07:02:00,55.0,46.2,29.87,SE,127,4.0,9.0,72,0.00,,,0.00,meteohub,2013-03-23 12:02:00,
2013-03-23 07:07:00,55.0,46.2,29.88,SE,143,2.0,9.0,72,0.00,,,0.00,meteohub,2013-03-23 12:07:00,
2013-03-23 07:12:00,55.2,46.4,29.88,ESE,110,2.0,8.0,72,0.00,,,0.00,meteohub,2013-03-23 12:12:00,
2013-03-23 07:18:00,55.4,46.6,29.88,ESE,119,2.0,8.0,72,0.00,,,0.00,meteohub,2013-03-23 12:18:00,
2013-03-23 07:23:00,55.4,46.6,29.88,ENE,77,4.0,7.0,72,0.00,,,0.00,meteohub,2013-03-23 12:23:00,
2013-03-23 07:28:00,55.6,46.8,29.88,East,97,2.0,7.0,72,0.00,,,0.00,meteohub,2013-03-23 12:28:00,
2013-03-23 07:33:00,55.6,46.8,29.88,East,86,3.0,5.0,72,0.00,,,0.00,meteohub,2013-03-23 12:33:00,
2013-03-23 07:39:00,55.8,46.9,29.88,East,92,2.0,6.0,72,0.00,,,0.00,meteohub,2013-03-23 12:39:00,
2013-03-23 07:44:00,55.8,46.9,29.87,East,91,3.0,6.0,72,0.00,,,0.00,meteohub,2013-03-23 12:44:00,
2013-03-23 07:49:00,55.9,47.5,29.87,East,91,2.0,6.0,73,0.00,,,0.00,meteohub,2013-03-23 12:49:00,
2013-03-23 07:54:00,56.1,47.7,29.87,SE,129,2.0,6.0,73,0.00,,,0.00,meteohub,2013-03-23 12:54:00,
2013-03-23 08:00:00,56.3,47.5,29.87,East,99,2.0,6.0,72,0.00,,,0.00,meteohub,2013-03-23 13:00:00,
2013-03-23 08:05:00,56.7,47.7,29.87,ESE,114,2.0,6.0,72,0.00,,,0.00,meteohub,2013-03-23 13:05:00,
2013-03-23 08:10:00,56.8,47.8,29.87,East,85,1.0,6.0,72,0.00,,,0.00,meteohub,2013-03-23 13:10:00,
2013-03-23 08:16:00,57.0,48.0,29.88,East,88,2.0,6.0,72,0.00,,,0.00,meteohub,2013-03-23 13:16:00,
2013-03-23 08:21:00,57.0,48.0,29.88,SE,127,1.0,6.0,72,0.00,,,0.00,meteohub,2013-03-23 13:21:00,
2013-03-23 08:26:00,57.4,48.4,29.88,East,96,0.0,6.0,72,0.00,,,0.00,meteohub,2013-03-23 13:26:00,
2013-03-23 08:32:00,57.4,48.4,29.88,ESE,112,2.0,6.0,72,0.00,,,0.00,meteohub,2013-03-23 13:32:00,
2013-03-23 08:37:00,57.7,48.7,29.88,ESE,123,2.0,6.0,72,0.00,,,0.00,meteohub,2013-03-23 13:37:00,
2013-03-23 08:42:00,57.9,48.9,29.88,ESE,114,2.0,5.0,72,0.00,,,0.00,meteohub,2013-03-23 13:42:00,
2013-03-23 08:47:00,58.3,49.3,29.89,East,83,3.0,5.0,72,0.00,,,0.00,meteohub,2013-03-23 13:47:00,
2013-03-23 08:52:00,58.3,49.3,29.89,ESE,106,2.0,6.0,72,0.00,,,0.00,meteohub,2013-03-23 13:52:00,
2013-03-23 08:57:00,58.3,49.3,29.89,East,82,3.0,6.0,72,0.00,,,0.00,meteohub,2013-03-23 13:57:00,
2013-03-23 09:03:00,58.5,49.8,29.90,East,93,2.0,6.0,73,0.00,,,0.00,meteohub,2013-03-23 14:03:00,
2013-03-23 09:08:00,58.5,49.8,29.89,ESE,104,1.0,5.0,73,0.00,,,0.00,meteohub,2013-03-23 14:08:00,
2013-03-23 09:13:00,58.6,50.4,29.89,ESE,107,3.0,7.0,74,0.00,,,0.00,meteohub,2013-03-23 14:13:00,
2013-03-23 09:18:00,58.8,50.5,29.89,East,94,2.0,7.0,74,0.00,,,0.00,meteohub,2013-03-23 14:18:00,
2013-03-23 09:23:00,59.0,50.7,29.90,ESE,107,1.0,7.0,74,0.00,,,0.00,meteohub,2013-03-23 14:23:00,
2013-03-23 09:29:00,59.2,50.9,29.89,SE,133,3.0,6.0,74,0.00,,,0.00,meteohub,2013-03-23 14:29:00,
2013-03-23 09:34:00,59.4,51.4,29.89,SE,124,2.0,6.0,75,0.00,,,0.00,meteohub,2013-03-23 14:34:00,
2013-03-23 09:39:00,59.5,51.6,29.89,ENE,75,2.0,6.0,75,0.00,,,0.00,meteohub,2013-03-23 14:39:00,
2013-03-23 09:45:00,59.5,52.0,29.90,ESE,103,5.0,6.0,76,0.00,,,0.00,meteohub,2013-03-23 14:45:00,
2013-03-23 09:50:00,59.5,52.0,29.89,East,85,3.0,6.0,76,0.00,,,0.00,meteohub,2013-03-23 14:50:00,
2013-03-23 09:55:00,59.5,52.7,29.89,East,87,3.0,7.0,78,0.00,,,0.00,meteohub,2013-03-23 14:55:00,
2013-03-23 10:00:00,59.7,52.5,29.89,ESE,118,3.0,7.0,77,0.00,,,0.00,meteohub,2013-03-23 15:00:00,
2013-03-23 10:05:00,59.9,53.4,29.89,East,93,5.0,7.0,79,0.00,,,0.00,meteohub,2013-03-23 15:05:00,
2013-03-23 10:10:00,60.1,53.2,29.89,East,95,2.0,7.0,78,0.00,,,0.00,meteohub,2013-03-23 15:10:00,
2013-03-23 10:15:00,60.4,54.0,29.89,ESE,102,3.0,8.0,79,0.00,,,0.00,meteohub,2013-03-23 15:15:00,
2013-03-23 10:20:00,60.6,53.8,29.88,ESE,118,4.0,8.0,78,0.00,,,0.00,meteohub,2013-03-23 15:20:00,
2013-03-23 10:26:00,60.6,54.1,29.88,ESE,113,3.0,8.0,79,0.00,,,0.00,meteohub,2013-03-23 15:26:00,
2013-03-23 10:31:00,61.0,54.5,29.88,ESE,116,3.0,7.0,79,0.00,,,0.00,meteohub,2013-03-23 15:31:00,
2013-03-23 10:37:00,61.0,54.5,29.88,East,91,6.0,7.0,79,0.00,,,0.00,meteohub,2013-03-23 15:37:00,
2013-03-23 10:42:00,61.3,54.9,29.88,SE,140,5.0,7.0,79,0.00,,,0.00,meteohub,2013-03-23 15:42:00,
2013-03-23 10:47:00,61.9,55.2,29.88,ESE,103,3.0,7.0,79,0.00,,,0.00,meteohub,2013-03-23 15:47:00,
2013-03-23 10:52:00,62.1,55.4,29.88,East,98,5.0,7.0,79,0.00,,,0.00,meteohub,2013-03-23 15:52:00,
2013-03-23 10:57:00,62.2,55.6,29.87,East,97,5.0,7.0,79,0.00,,,0.00,meteohub,2013-03-23 15:57:00,
2013-03-23 11:02:00,62.8,56.1,29.87,ESE,113,4.0,7.0,79,0.00,,,0.00,meteohub,2013-03-23 16:02:00,
2013-03-23 11:08:00,63.0,56.3,29.87,East,91,3.0,8.0,79,0.00,,,0.00,meteohub,2013-03-23 16:08:00,
2013-03-23 11:13:00,63.0,56.3,29.87,East,100,2.0,8.0,79,0.00,,,0.00,meteohub,2013-03-23 16:13:00,
2013-03-23 11:18:00,63.1,56.8,29.87,SE,135,3.0,7.0,80,0.00,,,0.00,meteohub,2013-03-23 16:18:00,
2013-03-23 11:23:00,63.3,57.0,29.87,ESE,120,3.0,7.0,80,0.00,,,0.00,meteohub,2013-03-23 16:23:00,
2013-03-23 11:28:00,63.5,56.8,29.87,ESE,113,2.0,5.0,79,0.00,,,0.00,meteohub,2013-03-23 16:28:00,
2013-03-23 11:33:00,63.7,57.4,29.87,SE,131,0.0,7.0,80,0.00,,,0.00,meteohub,2013-03-23 16:33:00,
2013-03-23 11:38:00,63.9,57.2,29.87,East,96,6.0,7.0,79,0.00,,,0.00,meteohub,2013-03-23 16:38:00,
2013-03-23 11:43:00,63.9,57.6,29.87,East,87,2.0,7.0,80,0.00,,,0.00,meteohub,2013-03-23 16:43:00,
2013-03-23 11:48:00,63.9,57.6,29.86,East,89,2.0,7.0,80,0.00,,,0.00,meteohub,2013-03-23 16:48:00,
2013-03-23 11:54:00,64.0,57.7,29.86,ENE,75,2.0,7.0,80,0.00,,,0.00,meteohub,2013-03-23 16:54:00,
2013-03-23 11:59:00,64.6,57.9,29.87,East,97,5.0,7.0,79,0.00,,,0.00,meteohub,2013-03-23 16:59:00,
2013-03-23 12:04:00,64.6,58.3,29.87,ENE,70,3.0,6.0,80,0.00,,,0.00,meteohub,2013-03-23 17:04:00,
2013-03-23 12:09:00,64.6,58.3,29.87,NE,54,2.0,6.0,80,0.00,,,0.00,meteohub,2013-03-23 17:09:00,
2013-03-23 12:15:00,64.8,58.5,29.87,NE,54,0.0,6.0,80,0.00,,,0.00,meteohub,2013-03-23 17:15:00,
2013-03-23 12:20:00,64.9,58.6,29.87,NE,51,2.0,4.0,80,0.00,,,0.00,meteohub,2013-03-23 17:20:00,
2013-03-23 12:25:00,65.1,58.5,29.87,East,93,3.0,3.0,79,0.00,,,0.00,meteohub,2013-03-23 17:25:00,
2013-03-23 12:30:00,65.1,58.5,29.87,ESE,108,1.0,5.0,79,0.00,,,0.00,meteohub,2013-03-23 17:30:00,
2013-03-23 12:35:00,65.1,58.5,29.87,East,85,1.0,5.0,79,0.00,,,0.00,meteohub,2013-03-23 17:35:00,
2013-03-23 12:40:00,64.9,58.6,29.86,East,85,2.0,7.0,80,0.00,,,0.00,meteohub,2013-03-23 17:40:00,
2013-03-23 12:45:00,64.9,58.6,29.86,East,97,2.0,8.0,80,0.00,,,0.00,meteohub,2013-03-23 17:45:00,
2013-03-23 12:50:00,65.1,58.5,29.85,ESE,103,1.0,8.0,79,0.00,,,0.00,meteohub,2013-03-23 17:50:00,
2013-03-23 12:57:00,65.3,58.6,29.85,East,96,1.0,8.0,79,0.00,,,0.00,meteohub,2013-03-23 17:57:00,
2013-03-23 13:02:00,65.1,58.1,29.85,NNE,23,1.0,4.0,78,0.00,,,0.00,meteohub,2013-03-23 18:02:00,
2013-03-23 13:07:00,64.9,57.2,29.84,NNE,33,4.0,5.0,76,0.00,,,0.00,meteohub,2013-03-23 18:07:00,
2013-03-23 13:12:00,64.6,56.8,29.84,NE,35,1.0,5.0,76,0.00,,,0.00,meteohub,2013-03-23 18:12:00,
2013-03-23 13:17:00,64.4,57.0,29.83,NE,54,2.0,4.0,77,0.00,,,0.00,meteohub,2013-03-23 18:17:00,
2013-03-23 13:22:00,64.8,57.4,29.83,NE,54,1.0,4.0,77,0.00,,,0.00,meteohub,2013-03-23 18:22:00,
2013-03-23 13:27:00,64.8,57.0,29.83,NE,36,1.0,5.0,76,0.00,,,0.00,meteohub,2013-03-23 18:27:00,
2013-03-23 13:32:00,64.4,57.0,29.83,NNE,30,4.0,5.0,77,0.00,,,0.00,meteohub,2013-03-23 18:32:00,
2013-03-23 13:38:00,64.6,56.8,29.81,East,79,6.0,7.0,76,0.00,,,0.00,meteohub,2013-03-23 18:38:00,
2013-03-23 13:43:00,64.2,56.8,29.81,NE,39,5.0,8.0,77,0.00,,,0.00,meteohub,2013-03-23 18:43:00,
2013-03-23 13:48:00,64.0,56.7,29.81,East,95,6.0,8.0,77,0.00,,,0.00,meteohub,2013-03-23 18:48:00,
2013-03-23 13:53:00,64.0,56.7,29.81,East,79,7.0,8.0,77,0.00,,,0.00,meteohub,2013-03-23 18:53:00,
2013-03-23 13:58:00,64.0,56.7,29.81,East,95,3.0,9.0,77,0.00,,,0.00,meteohub,2013-03-23 18:58:00,
2013-03-23 14:04:00,64.0,57.0,29.80,East,85,1.0,9.0,78,0.00,,,0.00,meteohub,2013-03-23 19:04:00,
2013-03-23 14:09:00,64.0,57.0,29.80,NE,43,3.0,9.0,78,0.00,,,0.00,meteohub,2013-03-23 19:09:00,
2013-03-23 14:14:00,64.0,57.0,29.79,NE,54,1.0,6.0,78,0.00,,,0.00,meteohub,2013-03-23 19:14:00,
2013-03-23 14:19:00,64.2,57.2,29.78,NNE,31,2.0,6.0,78,0.00,,,0.00,meteohub,2013-03-23 19:19:00,
2013-03-23 14:25:00,64.2,57.2,29.78,NE,42,1.0,6.0,78,0.00,,,0.00,meteohub,2013-03-23 19:25:00,
2013-03-23 14:30:00,64.4,57.4,29.78,East,95,0.0,5.0,78,0.00,,,0.00,meteohub,2013-03-23 19:30:00,
2013-03-23 14:35:00,64.6,57.6,29.78,ENE,76,4.0,5.0,78,0.00,,,0.00,meteohub,2013-03-23 19:35:00,
2013-03-23 14:40:00,64.6,57.6,29.78,East,97,5.0,7.0,78,0.00,,,0.00,meteohub,2013-03-23 19:40:00,
2013-03-23 14:46:00,64.4,57.4,29.79,East,92,6.0,9.0,78,0.00,,,0.00,meteohub,2013-03-23 19:46:00,
2013-03-23 14:51:00,64.2,57.6,29.79,East,91,2.0,9.0,79,0.00,,,0.00,meteohub,2013-03-23 19:51:00,
2013-03-23 14:56:00,64.2,57.6,29.79,NNE,31,1.0,8.0,79,0.00,,,0.00,meteohub,2013-03-23 19:56:00,
2013-03-23 15:01:00,64.0,57.0,29.79,East,91,2.0,6.0,78,0.00,,,0.00,meteohub,2013-03-23 20:01:00,
2013-03-23 15:06:00,64.0,57.4,29.80,East,97,5.0,5.0,79,0.00,,,0.00,meteohub,2013-03-23 20:06:00,
2013-03-23 15:11:00,63.9,57.2,29.81,ENE,70,2.0,5.0,79,0.00,,,0.00,meteohub,2013-03-23 20:11:00,
2013-03-23 15:17:00,63.7,57.4,29.81,NNE,26,2.0,5.0,80,0.00,,,0.00,meteohub,2013-03-23 20:17:00,
2013-03-23 15:22:00,63.5,57.2,29.78,ENE,70,2.0,5.0,80,0.00,,,0.00,meteohub,2013-03-23 20:22:00,
2013-03-23 15:27:00,63.1,56.8,29.78,East,89,5.0,5.0,80,0.00,,,0.00,meteohub,2013-03-23 20:27:00,
2013-03-23 15:33:00,63.0,57.0,29.77,East,97,6.0,8.0,81,0.00,,,0.00,meteohub,2013-03-23 20:33:00,
2013-03-23 15:38:00,63.0,57.4,29.77,East,91,1.0,10.0,82,0.00,,,0.00,meteohub,2013-03-23 20:38:00,
2013-03-23 15:43:00,63.0,57.0,29.77,ENE,57,0.0,10.0,81,0.00,,,0.00,meteohub,2013-03-23 20:43:00,
2013-03-23 15:48:00,62.8,56.8,29.77,ENE,78,3.0,10.0,81,0.00,,,0.00,meteohub,2013-03-23 20:48:00,
2013-03-23 15:53:00,62.8,57.2,29.77,East,92,6.0,8.0,82,0.00,,,0.00,meteohub,2013-03-23 20:53:00,
2013-03-23 15:59:00,62.8,57.2,29.77,East,81,7.0,8.0,82,0.00,,,0.00,meteohub,2013-03-23 20:59:00,
2013-03-23 16:04:00,62.8,57.2,29.77,East,90,8.0,11.0,82,0.00,,,0.00,meteohub,2013-03-23 21:04:00,
2013-03-23 16:09:00,62.2,57.0,29.78,SE,124,3.0,12.0,83,0.00,,,0.00,meteohub,2013-03-23 21:09:00,
2013-03-23 16:14:00,61.5,57.4,29.78,ESE,109,3.0,12.0,86,0.02,,,0.02,meteohub,2013-03-23 21:14:00,
2013-03-23 16:19:00,60.6,57.0,29.78,East,91,5.0,12.0,88,0.15,,,0.08,meteohub,2013-03-23 21:19:00,
2013-03-23 16:25:00,60.4,57.6,29.77,ENE,77,9.0,9.0,90,0.18,,,0.18,meteohub,2013-03-23 21:25:00,
2013-03-23 16:30:00,60.4,57.6,29.76,East,88,7.0,9.0,90,0.19,,,0.19,meteohub,2013-03-23 21:30:00,
2013-03-23 16:35:00,60.3,57.4,29.76,ENE,71,3.0,13.0,90,0.19,,,0.19,meteohub,2013-03-23 21:35:00,
2013-03-23 16:40:00,60.3,57.4,29.76,East,94,10.0,13.0,90,0.19,,,0.19,meteohub,2013-03-23 21:40:00,
2013-03-23 16:45:00,60.1,57.2,29.75,East,89,8.0,11.0,90,0.19,,,0.19,meteohub,2013-03-23 21:45:00,
2013-03-23 16:51:00,59.9,57.2,29.75,East,95,5.0,11.0,91,0.19,,,0.19,meteohub,2013-03-23 21:51:00,
2013-03-23 16:56:00,59.7,56.8,29.75,ENE,72,4.0,11.0,90,0.19,,,0.19,meteohub,2013-03-23 21:56:00,
2013-03-23 17:02:00,59.7,57.0,29.75,ENE,77,3.0,9.0,91,0.19,,,0.19,meteohub,2013-03-23 22:02:00,
2013-03-23 17:07:00,59.5,56.7,29.76,East,84,3.0,9.0,90,0.19,,,0.19,meteohub,2013-03-23 22:07:00,
2013-03-23 17:12:00,59.5,56.8,29.78,East,86,0.0,9.0,91,0.15,,,0.19,meteohub,2013-03-23 22:12:00,
2013-03-23 17:17:00,59.4,56.7,29.78,NE,43,1.0,7.0,91,0.03,,,0.19,meteohub,2013-03-23 22:17:00,
2013-03-23 17:22:00,59.2,56.8,29.77,East,89,6.0,6.0,92,0.00,,,0.19,meteohub,2013-03-23 22:22:00,
2013-03-23 17:28:00,59.2,56.8,29.76,East,95,6.0,10.0,92,0.00,,,0.19,meteohub,2013-03-23 22:28:00,
2013-03-23 17:33:00,59.0,56.7,29.75,ESE,119,3.0,10.0,92,0.00,,,0.19,meteohub,2013-03-23 22:33:00,
2013-03-23 17:38:00,58.8,56.5,29.75,East,87,7.0,10.0,92,0.01,,,0.20,meteohub,2013-03-23 22:38:00,
2013-03-23 17:43:00,58.8,56.5,29.75,SE,128,2.0,11.0,92,0.01,,,0.20,meteohub,2013-03-23 22:43:00,
2013-03-23 17:48:00,58.6,56.3,29.75,East,90,6.0,11.0,92,0.01,,,0.20,meteohub,2013-03-23 22:48:00,
2013-03-23 17:54:00,58.6,56.3,29.75,East,101,4.0,11.0,92,0.01,,,0.20,meteohub,2013-03-23 22:54:00,
2013-03-23 17:59:00,58.5,56.5,29.74,ESE,116,2.0,9.0,93,0.03,,,0.22,meteohub,2013-03-23 22:59:00,
2013-03-23 18:04:00,58.3,56.3,29.75,SE,125,4.0,11.0,93,0.03,,,0.22,meteohub,2013-03-23 23:04:00,
2013-03-23 18:09:00,58.1,56.1,29.76,East,100,1.0,11.0,93,0.05,,,0.24,meteohub,2013-03-23 23:09:00,
2013-03-23 18:14:00,57.9,55.9,29.76,SE,142,1.0,11.0,93,0.06,,,0.25,meteohub,2013-03-23 23:14:00,
2013-03-23 18:19:00,57.7,55.8,29.75,SE,127,4.0,7.0,93,0.06,,,0.25,meteohub,2013-03-23 23:19:00,
2013-03-23 18:24:00,57.6,55.6,29.75,ENE,77,5.0,11.0,93,0.07,,,0.26,meteohub,2013-03-23 23:24:00,
2013-03-23 18:30:00,57.4,55.4,29.75,ENE,65,2.0,13.0,93,0.07,,,0.26,meteohub,2013-03-23 23:30:00,
2013-03-23 18:35:00,57.4,55.6,29.75,SE,127,2.0,13.0,94,0.06,,,0.26,meteohub,2013-03-23 23:35:00,
2013-03-23 18:40:00,57.2,55.4,29.76,ESE,120,3.0,9.0,94,0.06,,,0.26,meteohub,2013-03-23 23:40:00,
2013-03-23 18:45:00,57.0,55.2,29.75,East,88,6.0,9.0,94,0.06,,,0.26,meteohub,2013-03-23 23:45:00,
2013-03-23 18:51:00,57.0,55.2,29.75,East,84,2.0,9.0,94,0.06,,,0.26,meteohub,2013-03-23 23:51:00,
2013-03-23 18:56:00,57.0,55.2,29.74,East,95,10.0,10.0,94,0.04,,,0.26,meteohub,2013-03-23 23:56:00,
2013-03-23 19:01:00,56.8,55.2,29.75,SE,139,6.0,10.0,94,0.05,,,0.27,meteohub,2013-03-24 00:01:00,
2013-03-23 19:06:00,56.8,55.2,29.74,East,94,7.0,10.0,94,0.03,,,0.00,meteohub,2013-03-24 00:06:00,
2013-03-23 19:11:00,56.8,55.2,29.75,ESE,106,4.0,10.0,94,0.02,,,0.00,meteohub,2013-03-24 00:11:00,
2013-03-23 19:17:00,56.8,55.2,29.73,East,91,7.0,9.0,94,0.02,,,0.01,meteohub,2013-03-24 00:17:00,
2013-03-23 19:22:00,56.7,55.2,29.73,ESE,113,5.0,11.0,95,0.02,,,0.01,meteohub,2013-03-24 00:22:00,
2013-03-23 19:27:00,56.7,55.2,29.73,East,87,8.0,14.0,95,0.02,,,0.01,meteohub,2013-03-24 00:27:00,
2013-03-23 19:32:00,56.7,55.2,29.73,East,80,9.0,14.0,95,0.02,,,0.01,meteohub,2013-03-24 00:32:00,
2013-03-23 19:37:00,56.7,55.2,29.73,ESE,109,9.0,14.0,95,0.02,,,0.01,meteohub,2013-03-24 00:37:00,
2013-03-23 19:42:00,56.7,55.2,29.73,ESE,105,7.0,11.0,95,0.02,,,0.01,meteohub,2013-03-24 00:42:00,
2013-03-23 19:47:00,56.5,55.0,29.73,SE,129,6.0,11.0,95,0.02,,,0.01,meteohub,2013-03-24 00:47:00,
2013-03-23 19:53:00,56.5,55.0,29.73,ESE,122,7.0,13.0,95,0.02,,,0.01,meteohub,2013-03-24 00:53:00,
2013-03-23 19:58:00,56.3,54.9,29.72,East,98,8.0,13.0,95,0.02,,,0.01,meteohub,2013-03-24 00:58:00,
2013-03-23 20:03:00,56.3,54.9,29.72,NE,52,10.0,13.0,95,0.01,,,0.01,meteohub,2013-03-24 01:03:00,
2013-03-23 20:08:00,56.1,54.7,29.73,SE,127,4.0,16.0,95,0.01,,,0.01,meteohub,2013-03-24 01:08:00,
2013-03-23 20:13:00,56.1,54.7,29.73,East,100,7.0,16.0,95,0.01,,,0.01,meteohub,2013-03-24 01:13:00,
2013-03-23 20:19:00,56.1,54.7,29.72,ESE,103,8.0,16.0,95,0.00,,,0.01,meteohub,2013-03-24 01:19:00,
2013-03-23 20:24:00,56.1,54.7,29.72,East,82,5.0,11.0,95,0.00,,,0.01,meteohub,2013-03-24 01:24:00,
2013-03-23 20:29:00,56.1,54.7,29.72,ESE,105,12.0,12.0,95,0.00,,,0.01,meteohub,2013-03-24 01:29:00,
2013-03-23 20:34:00,56.1,54.7,29.72,SE,142,5.0,13.0,95,0.00,,,0.01,meteohub,2013-03-24 01:34:00,
2013-03-23 20:39:00,55.9,54.5,29.71,ESE,104,7.0,13.0,95,0.00,,,0.01,meteohub,2013-03-24 01:39:00,
2013-03-23 20:44:00,55.9,54.5,29.71,ESE,111,7.0,16.0,95,0.00,,,0.01,meteohub,2013-03-24 01:44:00,
2013-03-23 20:50:00,55.9,54.5,29.70,East,93,6.0,16.0,95,0.00,,,0.01,meteohub,2013-03-24 01:50:00,
2013-03-23 20:55:00,55.9,54.5,29.71,SE,126,8.0,11.0,95,0.00,,,0.01,meteohub,2013-03-24 01:55:00,
2013-03-23 21:00:00,55.9,54.5,29.71,East,95,6.0,11.0,95,0.00,,,0.01,meteohub,2013-03-24 02:00:00,
2013-03-23 21:06:00,55.9,54.5,29.71,East,85,6.0,11.0,95,0.00,,,0.01,meteohub,2013-03-24 02:06:00,
2013-03-23 21:11:00,55.9,54.5,29.71,East,90,7.0,11.0,95,0.00,,,0.01,meteohub,2013-03-24 02:11:00,
2013-03-23 21:17:00,55.9,54.5,29.70,East,92,6.0,13.0,95,0.00,,,0.01,meteohub,2013-03-24 02:17:00,
2013-03-23 21:22:00,55.9,54.5,29.71,ESE,110,3.0,14.0,95,0.00,,,0.01,meteohub,2013-03-24 02:22:00,
2013-03-23 21:27:00,55.9,54.5,29.70,East,95,3.0,14.0,95,0.00,,,0.01,meteohub,2013-03-24 02:27:00,
2013-03-23 21:32:00,55.9,54.9,29.70,East,95,5.0,13.0,96,0.00,,,0.01,meteohub,2013-03-24 02:32:00,
2013-03-23 21:37:00,55.9,54.5,29.70,East,85,9.0,13.0,95,0.00,,,0.01,meteohub,2013-03-24 02:37:00,
2013-03-23 21:42:00,55.9,54.9,29.70,East,100,5.0,11.0,96,0.00,,,0.01,meteohub,2013-03-24 02:42:00,
2013-03-23 21:47:00,55.9,54.9,29.69,East,91,7.0,11.0,96,0.00,,,0.01,meteohub,2013-03-24 02:47:00,
2013-03-23 21:52:00,55.9,54.9,29.69,ESE,108,4.0,11.0,96,0.00,,,0.01,meteohub,2013-03-24 02:52:00,
2013-03-23 21:57:00,55.9,54.9,29.68,East,86,8.0,11.0,96,0.00,,,0.01,meteohub,2013-03-24 02:57:00,
2013-03-23 22:03:00,55.9,54.9,29.68,ESE,103,5.0,11.0,96,0.00,,,0.01,meteohub,2013-03-24 03:03:00,
2013-03-23 22:08:00,55.9,54.9,29.68,SE,131,4.0,13.0,96,0.00,,,0.01,meteohub,2013-03-24 03:08:00,
2013-03-23 22:13:00,55.9,54.9,29.68,East,91,6.0,13.0,96,0.00,,,0.01,meteohub,2013-03-24 03:13:00,
2013-03-23 22:18:00,55.9,54.9,29.68,East,92,6.0,13.0,96,0.01,,,0.02,meteohub,2013-03-24 03:18:00,
2013-03-23 22:24:00,55.9,54.9,29.68,ESE,119,7.0,13.0,96,0.01,,,0.02,meteohub,2013-03-24 03:24:00,
2013-03-23 22:29:00,55.9,54.9,29.68,East,88,8.0,13.0,96,0.01,,,0.02,meteohub,2013-03-24 03:29:00,
2013-03-23 22:34:00,55.9,54.9,29.68,SW,222,3.0,11.0,96,0.01,,,0.02,meteohub,2013-03-24 03:34:00,
2013-03-23 22:39:00,55.9,54.9,29.68,SE,129,3.0,11.0,96,0.01,,,0.02,meteohub,2013-03-24 03:39:00,
2013-03-23 22:45:00,56.1,55.0,29.68,ESE,113,4.0,11.0,96,0.01,,,0.02,meteohub,2013-03-24 03:45:00,
2013-03-23 22:50:00,56.1,55.0,29.67,East,85,6.0,9.0,96,0.02,,,0.03,meteohub,2013-03-24 03:50:00,
2013-03-23 22:55:00,56.1,55.0,29.66,ESE,104,3.0,9.0,96,0.02,,,0.03,meteohub,2013-03-24 03:55:00,
2013-03-23 23:00:00,56.1,55.0,29.66,ESE,111,3.0,9.0,96,0.02,,,0.03,meteohub,2013-03-24 04:00:00,
2013-03-23 23:01:00,56.1,55.0,29.66,ESE,120,4.0,9.0,96,0.02,,,0.03,meteohub,2013-03-24 04:01:00,
2013-03-23 23:02:00,56.1,55.0,29.66,East,81,5.0,9.0,96,0.02,,,0.03,meteohub,2013-03-24 04:02:00,
2013-03-23 23:07:00,56.1,55.0,29.66,ESE,110,4.0,9.0,96,0.02,,,0.03,meteohub,2013-03-24 04:07:00,
2013-03-23 23:12:00,56.3,55.2,29.65,SE,128,4.0,9.0,96,0.02,,,0.03,meteohub,2013-03-24 04:12:00,
2013-03-23 23:17:00,56.3,55.2,29.65,ESE,108,4.0,9.0,96,0.02,,,0.04,meteohub,2013-03-24 04:17:00,
2013-03-23 23:22:00,56.3,55.2,29.65,North,359,5.0,10.0,96,0.02,,,0.04,meteohub,2013-03-24 04:22:00,
2013-03-23 23:27:00,56.5,55.4,29.65,ESE,117,4.0,10.0,96,0.02,,,0.04,meteohub,2013-03-24 04:27:00,
2013-03-23 23:32:00,56.5,55.4,29.64,East,99,5.0,10.0,96,0.02,,,0.04,meteohub,2013-03-24 04:32:00,
2013-03-23 23:37:00,56.7,55.6,29.64,SE,143,9.0,11.0,96,0.02,,,0.04,meteohub,2013-03-24 04:37:00,
2013-03-23 23:42:00,56.7,55.6,29.64,SE,139,13.0,13.0,96,0.02,,,0.04,meteohub,2013-03-24 04:42:00,
2013-03-23 23:47:00,56.7,55.6,29.63,ESE,114,7.0,13.0,96,0.01,,,0.04,meteohub,2013-03-24 04:47:00,
2013-03-23 23:52:00,56.7,55.6,29.64,ENE,72,12.0,13.0,96,0.01,,,0.04,meteohub,2013-03-24 04:52:00,
2013-03-23 23:57:00,56.8,55.8,29.64,East,83,2.0,14.0,96,0.01,,,0.04,meteohub,2013-03-24 04:57:00,